SCP
0 0 0 0 1 1 1 1 1 1 1 1 1 1 1 1 1 1 1 1 1 2 2 2 2 1 1 1 1 1 1 1 1 1 1 1 1 1 1 1 0 0 0
0 0 0 0 1 1 1 1 1 1 1 1 1 1 1 1 1 1 1 1 1 2 2 2 2 1 1 1 1 1 1 1 1 1 1 0 0 1 1 0 0 0 0
0 0 0 0 1 1 1 1 1 1 1 1 1 1 1 1 1 1 1 1 2 2 3 2 1 1 1 1 1 1 1 1 1 0 0 0 0 0 0 0 0 0 0
0 0 1 1 1 1 1 1 1 1 2 2 1 1 1 1 1 1 1 1 2 2 2 2 1 1 1 1 1 1 1 1 1 0 0 0 0 0 0 0 0 0 0
0 0 1 1 1 1 1 1 1 1 2 2 2 1 1 2 2 2 2 2 2 2 2 2 2 1 1 1 1 1 1 1 1 0 0 0 0 0 0 0 0 0 0
0 1 1 1 1 1 1 1 1 1 1 1 1 1 2 2 2 2 2 2 2 2 2 2 1 1 1 1 1 1 1 1 1 0 0 0 0 0 0 0 0 0 0
0 1 1 1 1 1 1 1 1 1 1 1 1 1 2 2 2 2 2 2 2 2 1 1 1 1 1 1 1 1 1 1 1 0 0 0 0 0 0 0 0 0 0
0 1 1 1 1 1 1 1 1 1 1 1 1 1 1 1 2 2 1 1 1 1 1 1 1 1 1 1 1 1 1 1 1 0 0 1 0 0 0 0 0 0 0
1 1 1 2 2 2 1 1 1 1 1 1 1 1 1 1 1 1 1 1 1 1 1 1 1 1 1 1 1 1 1 1 1 0 0 0 0 0 0 0 0 0 0
1 1 1 2 2 2 1 1 1 1 1 1 1 1 1 1 1 1 1 1 1 1 1 1 1 1 1 1 1 1 1 1 1 0 0 0 0 0 0 0 0 0 0
0 1 1 1 2 2 2 2 2 1 1 1 1 1 1 1 1 1 1 1 1 1 1 1 1 1 1 1 1 1 1 1 0 0 0 0 1 1 1 0 0 0 0
0 0 1 1 2 2 3 2 2 1 1 1 1 1 1 1 1 1 1 1 1 1 1 1 1 1 1 1 1 1 1 1 0 0 0 1 1 1 1 1 1 0 0
0 0 0 1 1 2 2 3 2 1 1 1 1 1 1 1 1 1 1 1 1 1 1 1 1 1 1 1 1 1 1 0 0 1 1 1 1 1 1 1 1 1 0
0 0 0 1 2 2 3 3 2 2 1 1 1 1 1 1 1 1 1 1 1 1 1 1 1 1 1 1 1 1 0 0 0 1 1 1 1 1 1 1 1 1 1
1 0 1 1 2 3 4 4 3 2 2 1 1 1 1 1 1 1 1 1 1 1 1 1 1 1 1 1 1 0 0 0 1 1 1 1 1 1 1 1 1 1 1
1 1 1 1 2 3 4 4 3 3 2 2 1 1 1 1 1 1 1 1 1 1 1 1 1 1 1 1 1 1 1 1 1 1 1 1 1 1 1 1 1 1 1
1 1 1 2 3 4 4 4 3 3 3 2 2 1 1 1 1 1 1 1 1 1 1 1 1 1 1 1 1 1 1 1 1 1 1 1 1 1 1 1 1 1 1
3 3 2 2 3 4 4 4 3 3 3 2 2 2 1 1 1 1 1 1 1 1 1 1 1 1 1 1 1 1 1 1 1 1 1 1 1 1 1 2 2 2 2
5 5 4 3 3 4 4 4 3 3 3 2 2 2 2 1 1 1 1 1 1 1 1 1 1 1 1 1 1 1 1 1 1 1 1 1 1 2 2 2 2 2 2
6 7 6 4 4 5 4 4 3 3 2 2 2 2 2 2 1 1 1 1 1 1 1 1 1 1 1 1 1 1 1 2 2 2 1 1 1 2 2 2 2 2 2
8 9 8 6 5 5 4 4 3 3 2 2 2 3 3 2 1 1 1 1 1 1 2 2 2 2 1 1 1 1 1 2 2 2 2 1 1 2 2 2 2 2 1
10 11 11 9 7 6 5 4 4 3 2 2 2 3 3 2 2 1 1 1 1 1 2 2 2 2 1 1 2 1 2 2 2 2 2 2 1 1 1 2 2 2 2
11 13 13 12 10 8 6 5 4 3 2 2 3 3 4 3 2 2 2 2 1 1 2 2 3 2 2 2 2 2 2 2 2 2 2 2 2 1 1 1 2 2 2
10 12 14 14 12 10 8 6 4 3 2 2 2 3 4 3 3 2 2 2 2 1 2 2 3 3 2 2 2 2 2 2 2 2 2 2 2 1 1 1 1 2 2
9 10 13 15 14 11 9 7 5 3 2 2 2 3 3 3 3 3 2 2 2 2 2 2 2 3 3 3 2 2 2 2 2 2 2 2 2 1 1 1 1 1 2
7 9 12 15 14 12 9 7 5 4 2 2 2 2 3 3 3 3 3 2 2 2 2 2 2 3 3 3 3 3 2 2 2 2 2 1 2 1 1 1 1 1 1
Wind_Speed
8 9 9 10 10 10 11 11 12 13 14 14 15 15 16 17 17 17 17 17 18 19 20 20 19 19 19 19 19 18 17 17 17 17 17 16 15 14 13 13 13 11 15
9 9 9 10 10 10 11 11 12 13 14 14 14 15 16 16 17 17 17 18 18 19 19 19 19 18 18 18 18 17 16 16 16 17 17 15 14 12 11 11 13 10 14
10 9 9 10 10 11 11 11 12 13 14 14 14 14 15 16 16 16 17 18 19 19 19 19 18 18 17 17 17 16 15 15 15 16 15 10 11 13 13 14 15 14 14
10 9 10 11 11 11 11 11 12 13 13 13 14 14 15 15 15 16 17 18 18 18 18 18 18 17 17 16 15 14 13 13 13 12 8 9 9 13 14 14 14 14 13
11 12 11 12 11 11 11 11 11 12 13 13 13 14 14 15 15 16 17 17 17 17 17 17 17 16 15 14 13 11 10 10 10 7 7 9 9 13 14 14 13 13 13
12 12 12 12 11 11 11 11 11 12 12 12 13 13 14 14 14 15 16 16 16 16 16 16 16 15 14 12 11 9 7 6 6 5 7 9 9 12 13 13 12 12 12
12 12 12 12 11 11 11 11 11 11 12 12 12 13 13 14 13 14 15 15 15 15 15 15 14 13 12 10 8 6 4 2 3 5 7 9 9 12 13 12 11 11 11
12 13 12 12 11 11 11 10 10 11 11 11 12 12 12 12 12 14 14 14 14 14 14 13 12 11 10 8 5 3 2 1 4 9 9 9 12 12 12 11 11 10 10
11 11 10 10 10 11 11 10 10 10 10 11 11 12 12 12 13 13 13 13 13 13 12 12 11 10 8 6 3 2 2 2 1 6 10 8 12 13 12 11 10 10 9
9 9 9 10 9 8 9 10 10 9 9 10 11 11 12 12 12 13 12 11 12 11 11 10 9 8 7 5 4 3 3 3 2 7 7 9 13 13 12 11 10 9 9
7 7 7 8 8 8 9 10 8 9 8 9 8 10 10 7 9 9 12 12 11 10 10 9 8 7 6 5 6 5 5 2 4 6 7 12 13 13 12 11 10 9 8
6 7 6 7 6 5 7 6 5 6 6 3 4 6 5 4 5 9 11 12 11 10 9 9 8 7 6 4 6 6 3 1 4 6 7 14 12 12 11 10 9 8 8
5 6 8 8 5 5 4 4 3 3 4 3 4 4 4 4 5 6 5 7 7 8 5 7 6 4 4 3 2 3 2 1 3 6 8 13 12 11 11 10 9 8 7
6 6 7 8 6 5 4 3 3 3 3 3 4 3 3 2 2 3 2 4 4 3 4 3 3 3 2 2 2 1 1 2 4 5 7 13 11 11 10 9 9 8 7
5 6 8 7 6 4 4 3 3 3 3 4 3 3 3 2 2 3 2 1 2 3 3 2 1 2 1 1 1 1 1 3 5 6 5 11 11 10 10 9 9 8 8
5 6 7 7 6 4 3 2 2 3 3 3 3 4 3 2 2 2 2 1 1 2 2 1 1 1 1 1 0 1 1 2 4 6 6 7 10 9 9 9 9 8 8
6 6 6 6 6 4 3 1 1 2 3 3 3 4 3 2 2 1 1 1 1 1 1 1 1 1 1 1 1 0 1 1 2 4 5 4 5 7 8 7 8 8 8
7 7 4 5 7 5 3 1 1 2 2 3 3 3 4 3 2 1 1 1 1 1 1 1 1 0 0 1 1 0 1 1 2 3 3 4 4 5 6 8 7 7 7
7 7 5 4 6 5 4 2 1 1 1 1 2 2 4 4 3 2 1 1 1 1 1 1 1 0 0 0 1 1 1 1 1 2 2 3 4 4 4 6 8 7 7
8 7 6 5 5 4 4 2 1 1 1 1 1 2 2 2 3 2 2 2 1 1 1 1 1 0 1 1 2 1 1 2 1 1 1 2 2 3 4 5 5 5 7
9 8 6 5 5 3 3 3 2 2 1 2 2 2 2 1 1 1 0 2 1 1 1 1 1 1 1 1 0 1 0 1 2 2 2 1 2 1 2 4 3 2 3
10 9 7 6 6 5 3 2 2 2 2 2 2 3 2 1 1 1 1 1 1 1 1 1 1 1 1 1 1 1 0 0 0 1 2 2 2 2 2 3 3 3 2
11 10 9 7 6 6 5 3 2 2 1 1 2 3 2 2 2 0 1 0 0 1 1 1 1 1 1 1 1 1 1 1 1 0 1 2 2 1 2 2 3 3 2
12 11 9 8 7 6 5 4 4 3 2 2 2 3 3 2 2 2 1 1 0 1 1 1 1 1 1 1 1 1 2 1 1 1 1 1 2 1 1 1 2 3 3
13 12 10 9 7 7 5 4 4 3 2 2 2 3 3 2 2 2 2 1 1 0 1 1 1 0 1 1 1 1 1 1 2 2 1 1 1 1 2 2 2 2 3
13 12 12 10 8 7 7 6 5 4 2 2 2 3 3 2 3 3 2 2 1 0 0 0 0 0 1 1 2 2 1 1 1 1 1 2 2 1 2 2 2 2 3
Wind_Direction
75 76 64 58 56 54 54 55 57 54 58 69 80 84 87 90 93 96 98 101 105 107 107 107 107 108 108 109 111 112 111 109 110 110 111 112 112 114 117 121 117 109 114
92 85 74 66 63 61 60 62 63 62 64 76 83 85 88 91 94 95 96 100 104 106 107 107 107 109 110 111 112 113 113 114 115 116 114 110 108 109 112 112 107 113 118
96 95 83 70 69 68 67 68 69 69 71 79 88 89 90 92 96 96 96 100 103 105 106 106 107 109 110 111 112 115 118 121 124 126 124 115 108 103 101 102 108 115 117
93 88 83 79 75 73 72 70 73 74 75 82 89 92 92 94 96 98 100 102 104 105 107 107 108 110 111 113 115 119 124 129 136 141 128 120 112 106 105 108 113 116 117
91 91 90 85 81 79 79 77 77 78 79 82 90 94 95 96 98 99 101 103 104 105 106 107 109 110 112 115 118 122 126 133 144 139 105 102 101 113 112 112 115 117 118
102 97 95 91 86 85 83 80 80 81 83 83 91 95 98 98 100 101 103 104 105 105 106 107 109 111 112 115 119 122 126 139 144 126 111 110 112 120 117 117 117 119 121
102 101 100 98 94 90 87 82 83 87 88 89 94 99 101 102 102 104 104 104 105 105 106 107 110 111 113 116 120 125 130 156 149 113 103 106 115 124 123 123 123 122 123
107 105 108 108 103 96 93 88 89 93 93 95 100 105 105 105 105 107 107 108 108 108 110 111 114 116 117 122 131 140 154 256 125 114 111 110 125 127 128 130 130 128 126
108 113 122 118 109 104 100 94 99 101 102 107 111 116 116 116 112 111 112 113 113 114 115 117 121 124 127 133 154 205 252 298 83 119 118 121 133 132 133 136 135 134 132
108 114 121 124 128 126 114 112 114 115 115 118 122 128 130 128 125 125 122 119 120 121 123 126 130 135 143 161 194 229 259 283 161 113 109 128 139 139 140 140 141 144 146
97 102 113 115 128 128 120 122 130 127 128 134 138 145 149 147 138 134 122 129 131 133 137 140 145 152 165 188 211 230 258 239 112 108 111 135 145 144 145 147 149 153 155
96 100 96 90 88 101 110 127 140 132 134 149 134 148 161 134 122 122 135 142 146 148 152 162 167 177 194 201 208 222 241 208 119 111 123 144 148 149 151 153 157 162 164
108 93 93 91 84 85 92 118 116 113 126 133 109 116 120 119 129 131 147 152 159 162 170 164 183 200 197 194 194 200 211 144 104 110 135 149 152 154 156 159 166 171 176
108 96 89 91 81 61 64 85 108 110 117 113 117 121 110 111 116 127 138 150 160 159 164 171 189 185 179 187 199 205 178 108 105 113 146 152 156 159 162 166 173 180 187
108 104 90 90 82 69 54 29 79 86 101 105 106 92 105 111 100 99 92 109 145 140 153 163 152 152 167 230 234 197 81 100 113 120 136 158 160 164 166 170 177 183 188
124 113 108 110 107 98 88 41 42 96 97 98 105 110 99 96 100 107 132 120 93 126 146 162 186 175 180 160 46 43 52 87 118 132 142 161 168 170 173 180 185 190 195
132 121 122 126 119 123 121 118 112 106 113 109 108 120 121 117 125 140 165 154 180 159 139 164 193 170 183 147 137 134 112 85 112 135 144 151 165 176 181 188 192 193 203
143 133 141 136 127 130 123 99 46 71 99 121 129 136 142 154 146 151 161 164 194 174 152 166 194 185 98 125 134 162 99 114 139 149 150 160 162 169 181 189 190 194 200
139 136 143 124 128 137 141 142 129 82 80 100 120 130 149 159 155 173 177 166 215 163 142 208 96 76 147 146 195 180 169 147 158 167 149 168 166 157 163 179 180 180 186
143 142 148 141 136 144 148 153 146 123 123 126 118 120 133 154 157 184 183 174 211 143 123 87 98 225 195 217 247 126 155 160 159 156 172 144 132 154 160 158 173 186 188
149 150 154 153 148 156 158 159 160 153 172 166 164 138 140 167 147 166 77 139 202 145 146 171 164 201 205 178 107 48 345 156 162 161 151 131 120 137 136 141 156 161 173
156 156 156 164 159 166 163 162 170 167 176 163 145 134 148 156 171 159 163 207 161 159 187 183 153 223 235 174 155 168 225 162 296 152 142 149 148 139 128 140 135 139 145
162 164 170 169 164 171 169 173 181 156 190 155 149 142 151 162 161 103 127 182 312 235 156 193 211 228 234 236 207 190 205 201 159 160 166 139 131 121 126 128 130 135 149
166 168 164 164 166 170 175 182 190 175 181 181 161 146 157 173 166 160 148 160 87 337 97 207 130 270 256 264 248 224 225 187 187 174 188 146 148 149 147 155 127 129 132
170 168 165 164 167 168 181 186 189 196 193 182 157 144 159 167 168 154 152 138 119 340 61 42 31 341 290 304 304 288 258 226 201 192 195 179 175 164 162 148 126 121 114
171 169 166 164 168 172 180 187 190 205 201 202 179 165 179 172 167 172 164 141 139 168 120 77 303 263 338 331 314 312 305 281 236 206 202 180 164 159 140 125 123 117 113